Weather History for Harbor Springs, MI

Change the Weather History Date:

Friday, February 1, 2013

  Actual Average (KPLN) Record (KPLN)
Temperature  
Mean Temperature 14 °F -  
Max Temperature 15 °F 27 °F 44 °F (1998)
Min Temperature 11 °F 8 °F -26 °F (1961)
Degree Days  
Heating Degree Days 52    
Moisture  
Dew Point 9 °F    
Average Humidity 80    
Maximum Humidity 87    
Minimum Humidity 68    
Precipitation  
Precipitation 0.00 in - - ()
Sea Level Pressure  
Sea Level Pressure 30.01 in    
Wind  
Wind Speed 9 mph (West)    
Max Wind Speed 20 mph    
Max Gust Speed 25 mph    
Visibility 4 miles    
Events Snow    
Averages and records for this station are not official NWS values.
T = Trace of Precipitation, MM = Missing Value Source: NWS Daily Summary

Daily Weather History Graph

Daily Weather History Graph

Search for Another Location

Airport:

Trip Planner

Search our weather history database for the weather conditions in past years. The results will help you decide how hot, cold, wet, or windy it might be!

Date:

Astronomy

Feb. 01, 2013 Rise Set
Actual Time 8:00 AM EST 5:46 PM EST
Civil Twilight 7:28 AM EST 6:18 PM EST
Nautical Twilight 6:53 AM EST 6:53 PM EST
Astronomical Twilight 6:18 AM EST 7:28 PM EST
Moon No Moon Rise 10:13 AM EST (2/1)
Length of Visible Light 10h 49m
Length of Day
9h 46m
Waning Gibbous, 70% of the Moon is Illuminated
Feb 1
Waning Gibbous
Feb 3
Last Quarter
Feb 10
New
Feb 17
First Quarter
Feb 25
Full

Hourly Weather History & Observations

Time (EST) Temp. Windchill Dew Point Humidity Pressure Visibility Wind Dir Wind Speed Gust Speed Precip Events Conditions
12:15 AM 15.4 °F 6.8 °F 10.9 °F 82% 29.81 in 5.0 mi WNW 5.8 mph - N/A Snow Light Snow
12:34 AM 15.4 °F 4.6 °F 10.2 °F 80% 29.82 in 7.0 mi WNW 8.1 mph - N/A   Overcast
12:55 AM 15.4 °F 6.8 °F 9.5 °F 77% 29.82 in 10.0 mi WNW 5.8 mph - N/A   Overcast
1:14 AM 15.4 °F 4.6 °F 9.9 °F 79% 29.83 in 5.0 mi WNW 8.1 mph - N/A Snow Light Snow
1:34 AM 15.4 °F 6.8 °F 10.2 °F 80% 29.83 in 7.0 mi WNW 5.8 mph - N/A Snow Light Snow
2:14 AM 13.3 °F 4.2 °F 9.1 °F 84% 29.85 in 1.8 mi WNW 5.8 mph - N/A Snow Light Snow
2:34 AM 13.1 °F 5.4 °F 9.1 °F 84% 29.87 in 1.5 mi NW 4.6 mph - N/A Snow Light Snow
3:14 AM 13.1 °F 5.4 °F 8.4 °F 82% 29.88 in 5.0 mi NNW 4.6 mph - N/A Snow Light Snow
3:35 AM 12.9 °F 5.2 °F 8.6 °F 83% 29.89 in 3.0 mi NNW 4.6 mph - N/A Snow Light Snow
4:14 AM 12.9 °F - 8.4 °F 82% 29.90 in 3.0 mi Calm Calm - N/A Snow Light Snow
4:35 AM 12.9 °F - 8.8 °F 84% 29.91 in 3.0 mi Calm Calm - N/A Snow Light Snow
5:14 AM 12.4 °F 6.3 °F 9.0 °F 86% 29.92 in 7.0 mi WNW 3.5 mph - N/A   Overcast
5:35 AM 13.1 °F 0.9 °F 7.3 °F 78% 29.93 in 10.0 mi NW 9.2 mph - N/A   Overcast
6:14 AM 13.1 °F 0.9 °F 6.8 °F 76% 29.94 in 4.0 mi WNW 9.2 mph - N/A Snow Light Snow
6:35 AM 13.6 °F 2.5 °F 7.2 °F 75% 29.96 in 5.0 mi WNW 8.1 mph - N/A Snow Light Snow
7:14 AM 13.1 °F 2.8 °F 7.2 °F 77% 29.98 in 5.0 mi WNW 6.9 mph 16.1 mph N/A Snow Light Snow
7:34 AM 13.3 °F 4.2 °F 7.9 °F 79% 29.99 in 4.0 mi WNW 5.8 mph - N/A Snow Light Snow
7:54 AM 13.3 °F 4.2 °F 7.7 °F 78% 29.99 in 5.0 mi WNW 5.8 mph - N/A Snow Light Snow
8:15 AM 13.1 °F 0.9 °F 8.4 °F 82% 30.01 in 1.5 mi West 9.2 mph - N/A Snow Light Snow
8:34 AM 13.3 °F 3.0 °F 8.2 °F 80% 30.01 in 1.2 mi WNW 6.9 mph 16.1 mph N/A Snow Light Snow
9:15 AM 14.5 °F 4.6 °F 8.2 °F 76% 30.03 in 7.0 mi WNW 6.9 mph 16.1 mph N/A Snow Light Snow
9:34 AM 14.0 °F 8.2 °F 8.4 °F 78% 30.03 in 1.8 mi West 3.5 mph - N/A Snow Light Snow
9:54 AM 14.5 °F 4.6 °F 9.9 °F 82% 30.04 in 2.0 mi West 6.9 mph - N/A Snow Light Snow
10:15 AM 15.4 °F 3.0 °F 9.7 °F 78% 30.04 in 4.0 mi West 10.4 mph - N/A Snow Light Snow
10:34 AM 15.4 °F 1.0 °F 9.1 °F 76% 30.05 in 4.0 mi WNW 13.8 mph 23.0 mph N/A Snow Light Snow
10:54 AM 15.4 °F 2.3 °F 8.2 °F 73% 30.06 in 10.0 mi West 11.5 mph 16.1 mph N/A   Overcast
11:14 AM 15.4 °F 4.6 °F 7.3 °F 70% 30.06 in 10.0 mi West 8.1 mph 17.3 mph N/A   Overcast
11:34 AM 15.4 °F 4.6 °F 6.8 °F 69% 30.06 in 10.0 mi West 8.1 mph 16.1 mph N/A   Overcast
11:55 AM 15.4 °F 3.0 °F 6.6 °F 68% 30.07 in 10.0 mi West 10.4 mph 16.1 mph N/A   Overcast
12:14 PM 15.4 °F 2.3 °F 7.0 °F 69% 30.07 in 4.0 mi WNW 11.5 mph 16.1 mph N/A Snow Light Snow
12:34 PM 15.4 °F 4.6 °F 7.7 °F 71% 30.06 in 10.0 mi West 8.1 mph - N/A   Overcast
12:55 PM 15.6 °F 4.9 °F 8.2 °F 73% 30.06 in 5.0 mi West 8.1 mph - N/A Snow Light Snow
1:14 PM 15.4 °F 1.6 °F 9.1 °F 76% 30.05 in 2.5 mi West 12.7 mph 18.4 mph N/A Snow Light Snow
1:34 PM 15.6 °F 3.2 °F 8.6 °F 74% 30.05 in 2.5 mi West 10.4 mph 18.4 mph N/A Snow Light Snow
1:55 PM 15.4 °F 3.8 °F 10.8 °F 82% 30.05 in 0.5 mi West 9.2 mph 18.4 mph N/A Snow Light Snow
2:14 PM 15.6 °F 1.2 °F 11.3 °F 83% 30.05 in 1.2 mi WSW 13.8 mph 23.0 mph N/A Snow Light Snow
2:35 PM 15.4 °F 3.8 °F 10.2 °F 80% 30.05 in 1.8 mi West 9.2 mph 20.7 mph N/A Snow Light Snow
2:54 PM 15.4 °F 1.6 °F 10.4 °F 80% 30.05 in 1.0 mi WSW 12.7 mph 21.9 mph N/A Snow Light Snow
3:14 PM 15.4 °F -0.1 °F 11.7 °F 85% 30.05 in 1.0 mi SW 16.1 mph 23.0 mph N/A Snow Light Snow
3:35 PM 15.4 °F 1.0 °F 11.8 °F 86% 30.06 in 1.0 mi SW 13.8 mph 25.3 mph N/A Snow Light Snow
3:54 PM 15.3 °F -0.4 °F 11.7 °F 86% 30.06 in 0.8 mi SW 16.1 mph 24.2 mph N/A Snow Light Snow
4:14 PM 14.4 °F -3.0 °F 10.4 °F 84% 30.06 in 1.0 mi SW 19.6 mph 25.3 mph N/A Snow Light Snow
4:35 PM 14.5 °F -0.7 °F 9.9 °F 82% 30.06 in 2.0 mi SW 15.0 mph 23.0 mph N/A Snow Light Snow
5:14 PM 14.2 °F 0.0 °F 9.0 °F 80% 30.06 in 3.0 mi SW 12.7 mph 24.2 mph N/A Snow Light Snow
5:35 PM 13.6 °F -0.7 °F 9.3 °F 83% 30.06 in 1.5 mi SW 12.7 mph 24.2 mph N/A Snow Light Snow
5:54 PM 13.1 °F -3.1 °F 8.6 °F 82% 30.06 in 10.0 mi SW 16.1 mph 23.0 mph N/A   Overcast
6:14 PM 12.9 °F -2.8 °F 9.1 °F 85% 30.06 in 3.0 mi SW 15.0 mph 21.9 mph N/A Snow Light Snow
6:35 PM 12.9 °F -1.6 °F 9.3 °F 86% 30.06 in 2.0 mi SSW 12.7 mph 19.6 mph N/A Snow Light Snow
6:54 PM 12.9 °F -1.6 °F 9.3 °F 86% 30.06 in 3.0 mi SW 12.7 mph 19.6 mph N/A Snow Light Snow
7:14 PM 12.9 °F -3.9 °F 7.5 °F 79% 30.06 in 7.0 mi SW 17.3 mph 23.0 mph N/A   Overcast
7:35 PM 12.9 °F -0.2 °F 7.3 °F 78% 30.06 in 4.0 mi SW 10.4 mph 19.6 mph N/A Snow Light Snow
7:54 PM 12.9 °F -1.6 °F 7.9 °F 80% 30.06 in 4.0 mi SW 12.7 mph 19.6 mph N/A Snow Light Snow
8:14 PM 12.9 °F -0.9 °F 7.7 °F 80% 30.05 in 5.0 mi SW 11.5 mph 19.6 mph N/A   Haze
8:35 PM 12.9 °F -0.9 °F 8.2 °F 82% 30.05 in 4.0 mi SSW 11.5 mph - N/A Snow Light Snow
8:59 PM 12.9 °F -1.6 °F 7.5 °F 79% 30.04 in 7.0 mi SSW 12.7 mph 19.6 mph N/A   Overcast
9:14 PM 12.9 °F -1.6 °F 7.7 °F 80% 30.04 in 7.0 mi SSW 12.7 mph 18.4 mph N/A   Overcast
9:35 PM 12.9 °F -1.6 °F 8.1 °F 81% 30.04 in 1.8 mi SW 12.7 mph 18.4 mph N/A Snow Light Snow
9:54 PM 12.9 °F -1.6 °F 9.3 °F 86% 30.04 in 2.5 mi SSW 12.7 mph 18.4 mph N/A Snow Light Snow
10:14 PM 12.9 °F -1.6 °F 9.1 °F 85% 30.03 in 1.8 mi SW 12.7 mph 19.6 mph N/A Snow Light Snow
10:35 PM 12.9 °F -3.4 °F 9.1 °F 85% 30.03 in 1.0 mi SW 16.1 mph 25.3 mph N/A Snow Light Snow
10:54 PM 12.9 °F -0.9 °F 9.5 °F 86% 30.03 in 1.5 mi SW 11.5 mph 21.9 mph N/A Snow Light Snow
11:14 PM 12.9 °F -2.2 °F 9.5 °F 86% 30.03 in 3.0 mi SW 13.8 mph 19.6 mph N/A Snow Light Snow
11:35 PM 12.0 °F -2.7 °F 8.8 °F 87% 30.03 in 1.5 mi SW 12.7 mph 18.4 mph N/A Snow Light Snow
11:54 PM 11.1 °F -2.4 °F 7.9 °F 87% 30.03 in 2.5 mi WSW 10.4 mph 20.7 mph N/A Snow Light Snow